MST,Max TemperatureF,Mean TemperatureF,Min TemperatureF,Max Dew PointF,MeanDew PointF,Min DewpointF,Max Humidity, Mean Humidity, Min Humidity, Max Sea Level PressureIn, Mean Sea Level PressureIn, Min Sea Level PressureIn, Max VisibilityMiles, Mean VisibilityMiles, Min VisibilityMiles, Max Wind SpeedMPH, Mean Wind SpeedMPH, Max Gust SpeedMPH,PrecipitationIn, CloudCover, Events, WindDirDegrees
2013-1-1,33,20,6,21,11,2,100,72,43,30.34,30.21,30.07,10,7,0,21,10,28,T,3,Fog-Snow,300
2013-1-2,32,27,21,25,19,12,92,73,53,30.41,30.24,30.09,10,8,2,30,17,38,0.02,7,Snow,302
2013-1-3,37,21,5,16,9,1,88,63,37,30.45,30.37,30.26,10,10,8,17,9,23,T,1,Snow,306
2013-1-4,44,27,9,14,9,3,74,52,29,30.33,30.22,30.12,10,10,10,13,7,15,0.00,0,,306
2013-1-5,42,27,12,20,13,7,80,60,39,30.42,30.31,30.16,10,10,10,30,11,37,0.00,0,,311
2013-1-6,53,28,2,19,12,-2,88,53,18,30.35,30.16,29.95,10,10,10,13,5,16,0.00,0,,110
2013-1-7,50,36,21,20,14,7,75,47,18,30.10,29.96,29.78,10,10,10,15,7,17,0.00,0,,32
2013-1-8,51,38,25,23,21,18,69,50,30,30.24,29.98,29.75,10,10,10,32,14,40,0.00,0,,290
2013-1-9,61,44,27,23,20,16,69,43,17,30.29,30.14,29.98,10,10,10,21,10,29,0.00,0,,194
2013-1-10,55,40,25,37,27,17,100,65,29,29.98,29.68,29.44,10,8,0,20,10,23,0.00,1,Fog,119
2013-1-11,32,18,3,31,18,-3,100,85,70,30.04,29.57,29.35,10,4,0,28,13,36,0.08,7,Fog-Snow,325
2013-1-12,13,5,-3,3,-2,-8,87,74,61,30.32,30.17,29.90,10,10,6,24,9,30,T,3,Snow,309
2013-1-13,16,6,-4,4,-1,-8,95,77,59,30.41,30.31,30.06,10,10,4,13,7,16,T,4,Snow,312
2013-1-14,16,1,-14,0,-9,-19,87,69,51,30.52,30.38,30.11,10,10,10,12,4,14,0.00,0,,298
2013-1-15,30,11,-8,18,6,-13,75,64,53,30.33,30.23,30.07,10,10,10,24,13,32,0.00,6,,299
2013-1-16,47,34,21,22,19,14,74,56,37,30.43,30.26,30.08,10,10,10,28,14,36,0.00,1,,286
2013-1-17,50,34,18,19,15,12,80,54,27,30.54,30.40,30.21,10,10,10,10,7,14,0.00,0,,305
2013-1-18,56,38,19,15,13,10,68,42,16,30.18,30.07,29.99,10,10,10,31,17,37,0.00,0,,289
2013-1-19,55,39,22,21,14,8,75,45,15,30.31,30.19,30.02,10,10,10,18,9,24,0.00,0,,316
2013-1-20,38,25,11,21,15,7,91,66,40,30.43,30.33,30.15,10,10,10,22,7,26,0.00,1,,354
2013-1-21,43,25,7,17,12,4,91,62,33,30.37,30.25,30.03,10,10,10,10,4,21,0.00,0,,76
2013-1-22,56,35,13,17,9,3,80,46,12,30.22,30.14,30.09,10,10,10,17,7,21,0.00,0,,322
2013-1-23,52,37,22,20,12,6,75,46,17,30.27,30.18,30.09,10,10,10,22,9,24,0.00,0,,54
2013-1-24,65,42,19,28,22,17,91,55,19,30.18,30.06,29.89,10,10,4,37,14,51,0.00,2,,303
2013-1-25,61,39,16,30,22,14,84,56,27,30.22,30.12,30.04,10,10,5,22,6,29,0.00,0,,327
2013-1-26,63,42,20,30,25,18,91,59,27,30.06,29.91,29.70,10,10,10,20,6,25,0.00,1,,64
2013-1-27,60,46,31,43,35,28,100,66,32,29.75,29.69,29.62,10,10,5,15,6,17,0.03,4,Rain,103
2013-1-28,35,29,23,31,28,20,100,88,75,29.83,29.73,29.65,10,6,0,17,8,21,0.11,6,Fog-Snow,359
2013-1-29,34,22,10,21,16,6,100,75,49,30.12,29.88,29.71,10,10,10,23,11,30,0.00,2,,321
2013-1-30,37,20,2,21,13,-1,87,67,47,30.11,29.97,29.85,10,10,10,29,8,38,0.00,4,,309
2013-1-31,28,22,15,21,15,5,81,66,50,30.31,30.18,29.97,10,10,10,22,10,28,T,8,,315